GFSSW_prec_cloud_276.txt.gz
Cloud_Cover
5 5 5 18 5 0 0 0 0 0 0 0 0 0 0 0 0 0 0 0 0 0 0 0 0 0 0 0 0 0 0 0 10 100 98 17 80 100 90 39 77 53 0 0 0
5 6 5 5 4 0 0 0 0 0 0 0 0 0 0 5 0 0 0 0 0 0 0 0 0 0 0 0 0 0 0 0 12 99 31 90 61 100 100 43 25 0 0 0 0
5 30 5 5 4 0 0 0 0 0 0 0 0 0 0 4 0 0 0 0 0 0 0 0 0 0 0 0 0 0 0 1 56 100 78 83 24 38 100 100 100 100 100 6 0
72 5 5 5 5 1 0 0 0 0 0 0 0 0 0 0 0 0 0 0 0 0 0 0 0 0 0 0 0 0 0 3 67 46 0 3 0 97 100 89 100 100 100 91 5
5 5 5 5 0 0 0 0 0 0 0 0 0 0 7 0 0 0 0 0 0 0 0 0 0 0 0 0 0 0 0 0 4 1 0 0 0 0 100 100 100 100 100 100 32
1 0 0 0 0 0 0 0 0 0 0 0 1 1 0 0 0 0 0 0 0 0 0 0 0 0 0 0 0 0 0 0 0 0 0 0 0 0 27 100 100 91 100 100 7
0 0 0 0 0 5 0 0 0 0 0 0 0 2 2 6 2 0 0 0 0 0 0 0 0 0 0 0 0 0 0 0 0 0 0 0 0 0 23 100 100 6 5 1 30
0 0 0 0 0 2 4 5 5 0 0 0 9 15 83 94 4 0 0 0 0 0 0 0 0 0 0 0 0 0 0 0 0 0 0 0 0 0 0 0 91 98 27 4 0
0 0 0 0 5 5 5 95 35 1 0 4 100 100 100 100 21 5 0 0 0 0 0 0 0 0 0 0 0 0 0 0 0 0 0 0 0 0 2 0 1 2 34 16 4
0 0 0 0 0 0 0 5 5 5 16 2 100 100 100 46 49 5 0 0 0 0 0 0 0 0 0 0 0 0 0 0 3 0 0 0 0 0 72 26 3 40 3 60 49
0 0 0 0 0 0 0 0 5 7 5 5 96 100 100 68 35 5 4 0 0 0 0 0 0 0 0 0 0 0 1 5 3 78 0 0 1 0 64 79 0 0 6 99 100
0 0 0 0 0 0 0 0 0 9 5 37 66 100 97 99 75 15 13 5 2 0 0 0 0 0 0 0 0 0 0 0 35 96 0 0 0 4 5 22 5 0 50 4 22
0 0 0 0 0 0 0 0 0 5 4 53 61 62 96 25 76 73 53 5 0 0 0 0 0 0 0 0 0 0 0 0 0 4 2 0 0 0 0 0 0 0 0 0 4
0 0 0 0 0 0 0 0 0 0 5 3 22 5 98 48 87 100 38 7 6 0 0 1 4 5 0 0 0 0 0 0 0 0 0 1 0 0 1 42 0 0 0 0 0
0 0 0 0 0 0 0 0 0 0 3 0 4 99 45 81 100 96 13 68 88 5 1 0 5 5 5 0 0 0 0 0 0 0 0 1 2 5 8 42 0 0 0 0 0
0 0 0 0 0 0 0 0 0 0 1 4 5 33 23 100 84 100 100 8 99 100 53 57 0 5 4 1 0 0 0 0 0 0 0 5 0 0 96 45 6 98 0 0 0
0 0 2 0 0 0 0 0 0 0 0 0 5 0 4 89 98 45 100 97 86 56 96 20 5 3 5 5 3 4 5 5 5 5 5 4 0 0 37 15 0 2 5 0 0
0 0 0 1 0 0 0 0 0 0 0 0 5 5 0 1 69 57 99 38 68 100 100 36 6 76 4 0 0 0 0 0 2 20 90 98 33 95 44 0 0 0 0 0 0
0 0 0 0 0 5 0 0 0 0 5 1 29 4 5 0 14 15 40 100 100 77 43 5 12 1 5 43 5 5 1 1 0 4 52 88 98 68 7 50 3 0 0 0 0
0 0 0 0 0 0 2 3 0 0 0 0 1 0 0 0 0 0 5 100 100 100 100 68 6 6 5 15 5 5 5 1 3 5 1 67 62 53 52 5 5 5 20 20 73
8 0 0 0 0 0 0 1 10 22 2 0 0 2 0 4 66 4 0 42 100 100 100 100 100 100 38 17 78 5 5 25 26 32 5 20 100 90 74 77 77 7 33 30 6
62 28 4 0 0 0 0 0 2 35 43 4 0 3 5 0 5 99 62 0 5 99 100 100 93 100 59 14 38 5 5 7 8 43 7 99 100 84 53 49 6 50 5 83 93
100 100 67 1 0 0 0 0 0 0 5 12 4 0 6 46 0 3 48 75 64 5 84 100 100 100 92 17 94 96 71 6 18 74 100 100 100 100 80 100 90 92 46 29 7
100 100 90 13 30 0 0 2 3 1 0 5 13 69 0 1 6 0 0 11 100 16 90 98 99 99 100 100 100 95 96 100 100 100 100 100 100 76 86 100 100 100 98 73 0
2 80 100 100 99 71 13 1 1 5 8 0 2 72 51 0 18 24 3 1 82 91 57 97 79 100 100 100 89 100 100 100 98 93 97 100 100 82 78 31 100 100 100 95 9
5 36 45 54 10 5 28 3 5 0 62 71 2 6 96 13 0 64 83 95 89 96 2 100 23 100 100 100 100 98 100 100 100 100 100 100 100 6 18 85 92 99 100 59 32
44 42 26 55 24 100 21 5 7 69 2 53 93 27 5 99 0 0 86 100 100 92 93 2 2 8 6 100 100 72 30 83 90 100 100 100 95 99 93 16 51 4 5 8 9

GFSSW_prec_cloud_279.txt.gz
Cloud_Cover
60 70 96 100 5 5 5 3 11 0 0 0 0 0 0 0 0 0 0 0 0 0 0 0 0 0 0 0 0 0 0 10 1 1 66 96 39 87 100 100 71 79 3 0 0
9 49 26 6 3 2 1 3 4 0 0 0 0 0 0 1 0 0 0 0 0 0 0 0 0 0 0 0 0 0 0 18 0 4 4 100 5 84 95 100 100 45 31 43 100
5 6 5 5 5 0 0 0 0 0 0 0 0 0 0 0 0 0 0 0 0 0 0 0 0 0 0 0 0 0 0 0 0 36 30 100 7 99 95 100 100 100 21 95 100
5 5 5 3 0 0 0 0 0 0 0 0 0 1 0 0 0 0 0 0 0 0 0 0 0 0 0 0 0 0 0 0 0 1 18 71 100 96 97 100 100 100 100 100 100
5 5 23 5 2 5 5 3 0 0 0 0 2 2 0 0 0 0 0 0 0 0 0 0 0 0 0 0 0 0 0 0 0 0 1 2 89 5 41 100 100 100 100 100 100
5 5 5 10 60 3 0 0 0 0 0 0 17 1 0 0 0 0 0 0 0 0 0 0 0 0 0 0 0 0 0 0 0 0 0 0 0 0 0 24 98 100 100 100 100
5 5 5 5 5 5 2 0 0 0 0 0 0 0 0 0 0 0 0 0 0 0 0 0 0 0 0 0 0 0 0 0 0 0 0 0 0 0 0 62 100 100 100 100 100
5 3 0 0 0 3 0 0 0 0 0 0 1 0 0 0 0 2 5 0 0 0 0 0 0 0 0 0 0 0 0 0 0 0 0 0 0 0 0 57 26 85 90 14 6
1 4 2 1 4 0 0 0 0 0 0 0 2 0 0 1 6 6 22 0 0 0 0 0 0 0 0 0 0 0 0 0 0 0 0 0 0 0 0 0 53 48 7 47 25
1 0 0 0 0 0 0 0 0 0 12 5 8 0 0 82 98 66 82 2 4 0 0 0 0 0 0 0 0 0 0 0 0 0 0 0 0 0 0 4 0 88 100 100 42
0 0 0 0 0 0 0 0 0 0 0 0 57 2 0 64 100 100 6 5 3 0 0 0 0 0 0 0 0 0 0 0 0 1 0 0 0 0 0 8 100 98 80 35 74
0 0 0 0 0 0 0 0 0 0 0 1 13 31 10 10 100 100 52 11 5 2 0 0 0 0 0 0 0 0 0 0 0 3 19 1 0 0 0 6 94 7 5 2 0
0 0 0 0 0 0 0 0 0 0 0 0 5 24 56 45 100 100 98 15 6 5 5 5 0 0 0 0 0 0 0 0 0 1 2 1 0 0 0 0 7 4 0 0 0
0 0 0 0 0 0 0 0 0 0 0 0 5 5 47 100 100 100 100 97 5 5 5 7 0 0 0 0 0 0 0 0 0 0 0 0 0 0 0 0 11 0 0 0 0
0 0 0 0 0 0 0 0 0 0 0 0 0 14 5 91 100 73 100 97 100 7 5 25 5 3 0 0 0 0 0 0 0 0 0 0 0 0 0 0 5 0 0 0 0
0 0 0 0 0 0 0 0 0 0 0 0 0 2 5 8 92 36 12 68 98 22 21 50 8 12 4 0 0 0 0 0 0 0 0 0 0 0 0 0 0 0 0 0 0
0 0 0 0 0 0 0 0 0 0 0 0 0 0 3 5 4 73 16 63 75 100 99 85 97 97 54 41 2 0 0 0 0 0 0 0 0 0 0 2 0 0 0 0 0
0 0 0 0 0 0 0 0 0 0 0 2 3 2 0 3 4 0 26 34 95 93 100 99 94 100 100 79 4 0 0 0 0 0 0 4 2 0 0 0 0 2 0 1 2
3 0 0 0 0 0 0 0 0 0 0 0 0 0 0 0 5 2 1 58 26 99 100 100 100 97 36 95 4 5 21 2 1 0 4 20 28 6 0 0 3 0 31 4 0
52 0 0 0 0 0 0 0 0 0 3 0 0 0 0 0 17 2 0 1 17 16 96 100 70 100 92 8 83 5 90 1 0 2 1 2 98 83 13 5 5 5 12 5 4
0 0 0 5 5 2 0 0 0 0 0 0 0 0 0 0 4 12 12 2 3 0 4 99 87 100 64 9 74 99 4 32 4 5 62 7 31 90 5 82 36 5 5 5 16
4 0 0 0 4 6 1 0 0 0 0 0 0 0 0 0 5 0 0 0 31 5 0 10 42 93 100 100 34 98 5 9 78 86 5 5 5 6 14 5 5 5 97 18 52
12 5 0 0 2 3 5 1 4 0 0 0 0 0 0 3 1 3 5 0 3 30 12 0 2 3 99 95 100 100 100 100 24 5 5 5 87 73 100 59 19 5 46 93 100
100 73 0 0 0 0 4 51 91 4 0 0 0 0 0 3 5 1 2 33 14 5 46 99 2 0 6 100 100 100 100 100 37 2 27 14 100 100 99 59 37 8 11 5 100
100 100 83 7 12 4 4 5 78 100 86 13 0 0 0 0 7 0 5 7 95 74 100 100 6 0 0 76 65 99 100 100 100 100 100 100 100 100 100 85 97 10 25 90 100
100 100 100 100 62 1 3 2 5 0 67 100 23 5 0 0 0 5 5 5 17 100 100 73 7 68 5 7 17 5 5 100 100 100 100 100 100 100 100 100 100 96 100 87 81
100 100 100 100 14 1 0 0 0 0 3 5 4 5 1 0 0 0 0 38 2 85 100 40 33 12 4 25 100 71 4 49 100 100 100 55 90 84 82 100 100 100 83 5 5

GFSSW_prec_cloud_285.txt.gz
Cloud_Cover
100 100 100 100 79 83 6 7 5 5 5 5 5 0 14 20 0 0 0 0 0 0 0 0 0 0 0 0 0 0 0 39 44 5 31 4 0 0 15 100 100 100 100 100 69
69 100 74 100 92 36 54 5 5 5 5 5 5 0 33 12 0 0 0 0 0 0 0 0 0 0 0 0 0 0 0 93 38 5 12 7 0 0 22 100 100 100 100 100 100
59 100 13 6 15 90 5 8 58 87 29 5 0 5 38 2 0 0 0 0 0 0 0 0 0 0 0 0 0 0 0 100 76 18 0 0 0 0 1 100 100 100 99 99 12
23 5 5 14 36 40 88 82 100 100 90 72 4 1 4 0 0 0 0 0 0 0 0 0 0 0 0 0 0 0 0 76 99 42 0 0 0 0 4 98 100 100 100 87 93
97 98 46 32 74 26 28 90 93 32 5 5 4 36 1 0 0 0 0 0 0 0 0 0 0 0 0 0 0 0 0 5 6 9 4 3 0 0 0 0 6 8 100 100 100
100 92 28 8 5 5 5 7 26 17 5 37 5 8 0 0 0 0 0 0 0 0 0 0 0 0 0 0 0 0 0 0 17 5 0 0 0 0 0 18 11 28 98 100 100
100 100 100 100 39 5 5 5 5 5 5 5 5 8 0 0 0 0 0 0 0 0 0 0 0 0 0 0 0 0 0 0 0 5 0 0 0 0 0 0 5 42 83 100 100
100 92 5 16 8 5 5 3 0 1 5 5 2 0 1 0 0 0 0 0 0 0 0 0 0 0 0 0 0 0 0 0 0 5 0 0 0 0 0 0 91 43 98 100 100
100 100 100 64 66 32 6 5 5 5 5 5 3 3 4 0 0 0 0 0 0 0 0 0 0 0 0 0 0 0 0 0 0 0 3 0 0 0 0 0 0 2 35 86 100
100 100 100 100 100 78 7 5 5 4 5 3 1 1 0 0 0 0 0 0 0 0 0 2 6 0 0 0 0 0 0 0 0 0 0 0 0 0 0 0 0 0 0 98 100
5 69 100 100 100 100 5 19 75 11 5 1 0 0 0 0 0 0 0 5 2 0 0 68 93 0 0 0 0 0 0 0 0 0 0 0 0 0 0 0 0 0 27 100 12
5 4 5 8 26 36 4 11 5 5 5 2 0 0 0 0 0 0 0 5 5 0 100 100 8 0 0 0 0 0 0 0 0 0 0 0 0 0 0 4 5 5 72 2 33
0 0 0 0 0 0 0 0 1 3 1 0 0 0 0 0 0 0 2 4 5 3 100 100 8 29 4 4 2 0 0 0 0 0 0 0 0 0 2 0 1 0 3 3 0
0 0 0 0 0 0 0 0 0 0 0 0 0 0 0 0 0 0 0 0 4 0 83 100 12 75 5 4 4 1 0 0 0 0 0 0 0 0 0 0 0 0 0 0 0
0 0 0 0 0 0 0 0 0 0 0 0 0 0 0 0 0 0 0 0 5 5 17 100 86 100 100 17 4 0 0 0 0 0 0 0 0 0 0 0 0 0 0 0 0
0 0 0 0 0 0 0 0 0 0 0 0 0 0 0 0 0 0 0 0 0 0 45 100 89 100 100 14 39 7 18 1 0 0 0 0 0 0 0 0 0 0 0 0 32
0 0 0 0 0 0 0 0 0 0 0 0 0 0 0 0 0 0 0 0 0 0 4 50 17 98 100 56 5 5 2 1 0 0 0 0 3 0 0 3 4 0 0 1 43
0 0 0 2 0 0 0 0 0 0 0 0 0 0 0 0 0 0 0 0 0 0 0 4 72 100 100 100 29 0 5 4 0 5 0 0 47 5 0 0 5 0 0 4 48
5 0 0 0 0 0 0 0 0 0 0 0 0 0 0 0 0 0 0 0 0 0 0 0 6 69 77 82 5 5 5 2 0 39 42 1 5 5 0 0 5 5 3 7 31
100 21 0 0 0 0 0 0 0 0 0 0 0 0 0 0 0 0 0 0 0 0 0 0 0 2 60 28 5 5 24 7 1 5 5 5 3 40 1 0 4 2 0 2 24
100 98 1 5 49 3 0 0 0 0 0 0 0 0 0 0 0 0 0 0 0 0 0 0 0 1 1 33 84 93 100 71 5 5 5 5 6 5 17 3 0 2 5 21 94
100 98 100 48 21 100 100 3 0 0 0 0 0 0 0 0 0 0 0 0 0 0 0 0 0 0 0 0 5 5 5 5 5 62 42 5 86 4 8 36 8 38 32 90 44
5 5 5 100 100 100 89 100 55 14 6 0 0 0 0 0 0 0 0 0 0 0 0 0 0 0 0 0 0 0 6 99 100 92 53 17 87 82 0 5 98 100 100 100 26
32 5 38 99 92 100 77 64 64 100 99 4 0 0 0 0 0 0 0 0 0 0 0 0 0 0 0 0 0 0 2 1 2 0 8 5 81 88 6 67 81 100 100 100 100
19 100 99 92 97 90 100 100 53 13 11 0 0 0 0 1 0 0 0 0 0 1 5 4 0 0 0 0 0 0 0 0 0 0 0 17 5 77 5 5 83 100 100 100 100
35 62 72 100 100 11 100 100 100 96 100 85 78 100 98 100 4 1 1 29 2 0 5 5 4 0 0 0 0 0 0 0 0 4 0 0 3 5 4 3 25 100 100 100 100
98 100 100 100 41 20 99 100 100 100 100 81 5 89 100 100 100 96 2 0 44 61 0 0 5 20 0 4 2 37 0 0 0 1 4 0 2 0 5 5 71 97 100 100 100

GFSSW_prec_cloud_291.txt.gz
Cloud_Cover
5 5 5 5 3 5 3 1 1 0 0 0 5 0 0 53 9 0 0 0 0 0 0 0 0 0 0 0 0 0 0 0 50 5 22 50 4 0 0 0 0 0 1 79 99
6 4 5 5 5 0 5 5 5 5 0 3 5 3 8 98 0 0 0 0 0 0 0 0 0 0 0 0 0 0 0 3 5 5 5 5 5 2 0 0 0 0 0 82 71
5 5 5 5 4 5 5 5 5 5 5 5 5 5 4 7 0 5 5 3 0 0 0 0 0 0 0 0 0 0 0 0 42 19 16 5 5 7 0 0 0 0 0 61 100
0 0 0 2 5 7 6 47 5 54 6 5 1 3 9 5 5 5 5 5 1 0 0 0 0 0 0 0 0 0 0 0 3 85 58 50 6 10 11 4 0 0 0 89 98
0 0 3 18 5 21 10 25 6 68 44 7 5 5 62 64 5 5 5 5 0 0 0 0 0 0 0 0 0 0 0 0 0 4 10 87 94 100 51 1 0 0 0 26 36
4 4 5 91 37 19 15 7 6 60 72 60 12 47 78 98 26 5 5 5 3 0 0 0 0 0 0 0 0 0 0 0 0 2 5 4 8 4 3 2 0 0 0 9 5
26 9 45 82 100 98 17 100 78 74 28 32 8 9 81 96 19 5 5 3 0 1 4 0 0 0 0 0 0 0 0 0 0 0 8 5 5 0 0 1 0 0 0 51 72
68 50 52 99 100 100 94 17 21 96 99 95 76 34 6 22 5 5 5 4 0 3 0 0 0 0 0 0 0 0 0 0 0 0 0 4 0 4 0 0 0 0 66 99 97
48 53 58 59 46 99 100 100 100 100 100 64 29 5 5 5 2 5 0 0 0 5 0 0 0 0 0 0 0 0 0 0 0 0 0 0 0 2 0 0 0 0 2 0 35
5 17 88 48 94 100 100 100 100 100 80 83 39 17 5 5 0 0 1 0 0 0 0 0 0 0 0 0 0 0 0 0 0 0 0 0 0 0 0 0 0 0 0 0 0
5 5 5 5 73 71 87 100 100 100 100 20 6 5 5 2 0 0 0 0 0 0 0 0 0 0 0 0 0 0 0 0 0 0 0 0 0 0 0 0 0 0 0 0 0
0 4 4 5 5 5 28 78 100 100 80 5 5 5 20 2 4 0 5 5 3 0 0 0 0 0 0 0 0 0 0 0 0 0 0 0 0 0 0 0 0 0 0 0 0
0 0 3 5 5 5 5 5 6 100 100 68 88 41 66 5 5 1 1 0 0 0 0 0 0 0 0 1 0 0 0 0 1 0 0 0 0 0 0 0 0 0 0 0 0
0 0 0 0 0 0 2 0 3 9 6 6 99 99 100 30 5 5 0 0 2 0 2 5 0 0 0 0 0 0 0 4 5 2 0 0 0 0 0 0 0 4 0 0 0
0 0 0 0 0 0 0 0 0 0 0 0 0 86 100 50 2 5 2 0 1 0 4 3 0 0 0 3 5 0 4 1 1 0 5 0 0 0 0 0 0 0 0 0 0
0 0 0 0 0 0 0 0 0 0 0 0 0 2 13 72 5 5 5 3 2 0 0 0 0 1 0 0 4 0 0 0 0 2 6 2 1 0 0 0 5 5 2 0 0
0 0 0 0 0 0 0 0 0 0 0 0 0 0 0 0 2 2 3 3 1 0 0 0 0 1 0 0 0 5 1 0 3 5 15 5 49 15 0 0 0 0 0 0 3
0 0 0 0 0 0 0 0 0 0 0 0 0 0 0 0 0 0 0 0 0 0 0 0 0 0 0 0 0 0 0 3 5 19 5 37 98 100 62 1 5 0 5 4 0
0 0 0 0 0 0 0 0 0 0 0 0 0 0 0 0 0 0 0 0 0 0 0 0 0 0 0 0 0 0 0 0 0 98 58 36 100 100 100 5 29 5 5 6 5
0 0 0 0 0 0 0 0 0 0 0 0 0 0 0 0 0 0 0 0 0 0 0 0 0 0 0 0 0 0 0 0 0 15 100 99 100 100 99 100 100 63 85 100 100
1 0 0 0 0 0 0 0 0 3 5 0 0 0 0 0 0 0 0 0 0 0 0 0 0 0 0 0 0 0 0 0 0 0 15 99 100 100 100 100 100 41 5 25 100
8 66 71 0 2 1 0 0 4 0 4 5 0 0 0 10 18 0 0 0 0 0 0 0 0 0 0 0 0 0 0 0 0 0 0 4 85 100 94 7 9 98 81 100 100
100 100 100 100 100 76 46 17 15 3 0 0 0 0 0 0 6 33 1 0 0 0 0 0 0 0 0 0 0 0 0 0 0 0 0 0 64 100 98 5 1 5 14 9 79
50 74 100 100 100 100 100 100 100 100 10 1 0 0 0 0 13 5 5 0 0 0 0 0 0 0 0 4 0 0 0 0 0 0 0 0 1 97 100 100 20 62 100 100 47
66 15 77 100 97 98 95 60 87 96 100 5 4 0 0 2 3 0 0 4 1 0 0 0 0 0 0 0 0 0 0 0 0 0 0 0 0 0 7 93 100 89 100 84 86
100 76 92 100 100 100 90 61 73 100 92 6 22 18 5 4 5 5 5 2 5 0 0 0 0 0 0 0 0 0 0 0 0 0 0 0 0 0 0 0 1 3 5 5 5
99 37 7 89 98 100 100 98 100 61 5 15 6 39 11 12 17 56 14 2 4 17 1 0 0 0 0 0 0 0 0 0 0 0 0 0 0 0 0 0 0 0 0 0 0